Tracking 20621 objects as of 29-Mar-2020
HD Live streaming from Space Station
objects crossing your sky now

PEGASUS DEB

Track PEGASUS DEB now!
10-day predictions


NORAD ID: 24594
Int'l Code: 1994-029YW
Perigee: 551.6 km
Apogee: 1,322.2 km
Inclination: 81.5 °
Period: 103.6 minutes
Semi major axis: 7307 km
RCS: 0.0131 m2 (small)
Launch date: May 19, 1994
Source: United States (US)
Launch site: AIR FORCE WESTERN TEST RANGE (AFWTR)

Note: This is SATELLITE DEBRIS
aabbcc
Your satellite tracking list
Your tracking list is empty




NASA's NSSDC Master Catalog

Two Line Element Set (TLE):
1 24594U 94029YW  20088.81984560 +.00000319 +00000-0 +79413-4 0  9998
2 24594 081.4697 318.3986 0527236 210.4409 285.3843 13.89679326190427
Source of the keplerian elements: AFSPC